Tracking 35274 objects as of 10-Sep-2026
HD Live streaming from Space Station
objects crossing your sky now

SPACEBEE-74


SPACEBEE-74 is no longer on orbit


NORAD ID: 48636
Int'l Code: 2021-006FC
Launch date: January 24, 2021
Source: United States (US)
Launch site: AIR FORCE EASTERN TEST RANGE (AFETR)
Decay date: 2023-05-25
Your satellite tracking list
Your tracking list is empty




NASA's NSSDC Master Catalog

Two Line Element Set (TLE):
1 48636U 21006FC  23143.15969595  .10949963  23330-5  23380-2 0  9993
2 48636  97.1273 188.5621 0013942 251.7818 108.1960 16.30511000129554
Source of the keplerian elements: AFSPC